CW7283 Weather Reports


time (UTC)temp
C
wind
direction
speed
KPH
gust
KPH
rain 1hr
cm
rain 24hr
cm
rain mn
cm
humidity
%
barometer
mb
20260504213347 9 313 1.6 12.9 0.00 0.00 0.00 50 1012.4
20260504211825 9 17 1.6 8.0 0.00 0.00 0.00 49 1012.4
20260504210329 9 14 0.0 11.3 0.00 0.00 0.00 48 1012.5
20260504204849 8 289 1.6 8.0 0.00 0.00 0.00 51 1012.8
20260504203412 7 333 0.0 4.8 0.00 0.00 0.00 53 1013.0
20260504201842 7 323 1.6 11.3 0.00 0.00 0.00 50 1012.9
20260504200356 8 261 1.6 11.3 0.00 0.00 0.00 51 1013.0
20260504194847 8 15 0.0 12.9 0.00 0.00 0.00 51 1013.0
20260504193334 8 24 1.6 12.9 0.00 0.00 0.00 50 1013.0
20260504191837 8 13 1.6 9.7 0.00 0.00 0.00 50 1012.9
20260504190351 8 9 1.6 11.3 0.00 0.00 0.00 51 1013.0
20260504184847 8 332 3.2 17.7 0.00 0.00 0.00 54 1013.0
20260504183338 8 311 6.4 11.3 0.00 0.00 0.00 53 1013.0
20260504181826 8 25 3.2 14.5 0.00 0.00 0.00 55 1013.3
20260504180341 8 14 1.6 9.7 0.00 0.00 0.00 55 1013.4
20260504174839 7 348 1.6 12.9 0.00 0.00 0.00 56 1013.5
20260504173336 7 272 3.2 11.3 0.00 0.00 0.00 56 1013.6
20260504171839 7 302 3.2 12.9 0.00 0.00 0.00 56 1013.7
20260504170332 7 270 3.2 11.3 0.00 0.00 0.00 58 1013.7
20260504160354 6 5 1.6 9.7 0.00 0.00 0.00 60 1014.0
20260504150348 6 5 0.0 11.3 0.00 0.00 0.00 64 1014.2
20260504140335 6 321 0.0 3.2 0.00 0.00 0.00 63 1014.2
20260504130336 6 5 0.0 3.2 0.00 0.00 0.00 61 1013.7
20260504110339 3 306 0.0 3.2 0.00 0.00 0.00 71 1010.7
20260504100348 3 63 0.0 0.0 0.00 0.00 0.00 72 1008.1
20260504081829 6 148 0.0 0.0 0.00 0.00 0.00 68 1007.2
20260504080413 6 141 0.0 0.0 0.00 0.00 0.00 68 1007.3
20260504070402 7 300 0.0 0.0 0.00 0.00 0.00 62 1007.4
20260504050348 7 346 0.0 0.0 0.00 0.00 0.00 66 1007.1
20260504044844 8 319 0.0 0.0 0.00 0.00 0.00 63 1006.9
20260504043333 9 198 0.0 0.0 0.00 0.00 0.00 62 1007.0
20260504041852 10 198 0.0 0.0 0.00 0.00 0.00 60 1007.1
20260504040327 10 198 0.0 0.0 0.00 0.00 0.00 60 1007.1
20260504034825 10 219 0.0 0.0 0.00 0.00 0.00 59 1007.1
20260504033345 11 203 0.0 0.0 0.00 0.00 0.00 56 1007.1
20260504031838 12 173 0.0 3.2 0.00 0.00 0.00 53 1007.1
20260504030329 12 221 0.0 3.2 0.00 0.00 0.00 52 1007.1
20260504024852 12 217 0.0 3.2 0.00 0.00 0.00 52 1007.1
20260504023349 13 229 0.0 3.2 0.00 0.00 0.00 50 1007.0
20260504021900 15 215 0.0 3.2 0.00 0.00 0.00 47 1007.0
20260504020332 16 227 0.0 0.0 0.00 0.00 0.00 42 1007.1
20260504014841 17 227 0.0 0.0 0.00 0.00 0.00 41 1007.1
20260504013336 17 301 0.0 3.2 0.00 0.00 0.00 39 1007.1
20260504011825 18 326 0.0 3.2 0.00 0.00 0.00 36 1007.3
20260504010329 18 31 0.0 3.2 0.00 0.00 0.00 34 1007.6
20260504004858 18 360 1.6 8.0 0.00 0.00 0.00 35 1007.7
20260504003326 18 19 0.0 4.8 0.00 0.00 0.00 33 1007.7
20260504001826 20 355 4.8 9.7 0.00 0.00 0.00 31 1007.9
20260504000412 21 323 0.0 3.2 0.00 0.00 0.00 30 1008.2
20260503234849 21 5 0.0 3.2 0.00 0.00 0.00 30 1008.3
20260503233352 21 22 0.0 3.2 0.00 0.00 0.00 29 1008.3
20260503231838 21 12 0.0 4.8 0.00 0.00 0.00 31 1008.4
20260503230334 20 332 1.6 16.1 0.00 0.00 0.00 32 1008.5
20260503224831 20 20 0.0 8.0 0.00 0.00 0.00 33 1008.6
20260503223345 20 263 1.6 8.0 0.00 0.00 0.00 33 1008.9
20260503221842 20 334 1.6 9.7 0.00 0.00 0.00 36 1009.0
20260503220403 20 350 0.0 14.5 0.00 0.00 0.00 36 1009.4
20260503214848 20 29 3.2 9.7 0.00 0.00 0.00 36 1009.5